Total_Precipitation_Accumulation
1.05 1.09 1.20 0.89 0.74 0.70 0.68 0.73 0.72 0.63 0.62 0.63 0.61 0.60 0.58 0.58 0.61 0.69 0.73 0.73 0.82 0.94 1.02 1.08 1.15 1.16 1.09 0.97 0.94 0.88 0.81 0.79 0.84 0.96 1.03 1.00 1.01 1.32 1.65 1.76 1.66 1.11 1.17
0.77 0.89 1.04 0.79 0.64 0.59 0.59 0.67 0.62 0.55 0.55 0.57 0.56 0.57 0.55 0.55 0.58 0.64 0.73 0.82 0.89 0.97 1.01 1.10 1.12 1.04 0.90 0.75 0.68 0.66 0.71 0.80 0.97 1.12 1.04 0.87 1.02 1.25 1.52 1.56 1.61 1.05 1.06
0.48 0.68 0.75 0.72 0.60 0.56 0.59 0.62 0.59 0.55 0.53 0.60 0.61 0.62 0.64 0.63 0.59 0.62 0.72 0.82 0.91 0.97 0.97 1.03 0.99 0.90 0.70 0.58 0.54 0.59 0.69 0.90 1.14 1.33 1.38 0.82 0.72 1.20 1.49 1.48 1.27 0.93 0.92
0.36 0.48 0.51 0.55 0.51 0.43 0.40 0.44 0.54 0.55 0.57 0.63 0.71 0.79 0.82 0.85 0.81 0.79 0.81 0.84 0.93 0.95 0.93 0.94 0.86 0.72 0.57 0.50 0.52 0.60 0.70 0.96 1.23 1.60 1.53 0.84 0.54 0.93 1.24 1.12 0.98 0.90 0.90
0.34 0.41 0.46 0.42 0.36 0.36 0.33 0.35 0.46 0.57 0.62 0.63 0.71 0.82 0.91 1.06 1.02 0.99 0.97 1.04 1.04 0.95 0.83 0.76 0.73 0.58 0.47 0.48 0.52 0.59 0.70 0.94 1.24 1.39 1.12 0.99 0.92 0.93 0.97 0.96 0.95 0.96 0.95
0.31 0.31 0.32 0.36 0.37 0.37 0.35 0.37 0.43 0.52 0.58 0.62 0.66 0.78 0.86 1.05 1.17 1.14 1.08 1.12 1.03 0.83 0.72 0.65 0.59 0.50 0.47 0.49 0.56 0.61 0.74 0.99 1.07 0.81 0.75 0.80 0.86 1.00 0.91 1.05 1.14 1.12 1.03
0.32 0.30 0.28 0.32 0.34 0.36 0.37 0.39 0.43 0.45 0.53 0.53 0.52 0.61 0.74 0.90 1.09 1.07 1.05 1.02 0.85 0.73 0.67 0.60 0.53 0.50 0.53 0.54 0.57 0.62 0.78 1.02 0.89 0.60 0.75 0.87 0.77 0.82 0.91 1.13 1.33 1.30 1.12
0.47 0.36 0.35 0.37 0.34 0.34 0.35 0.39 0.40 0.41 0.45 0.50 0.47 0.52 0.65 0.78 0.89 0.92 0.88 0.83 0.72 0.66 0.63 0.58 0.51 0.50 0.51 0.51 0.51 0.60 0.79 0.86 0.71 0.63 0.64 0.64 0.60 0.73 0.94 1.14 1.33 1.40 1.21
0.71 0.52 0.46 0.40 0.33 0.34 0.38 0.38 0.39 0.41 0.49 0.53 0.50 0.55 0.70 0.72 0.79 0.81 0.84 0.81 0.79 0.74 0.70 0.57 0.50 0.46 0.46 0.46 0.49 0.57 0.76 0.91 0.78 0.77 0.58 0.61 0.78 0.91 1.10 1.26 1.30 1.30 1.19
0.99 0.76 0.59 0.56 0.54 0.46 0.39 0.43 0.45 0.45 0.51 0.58 0.59 0.67 0.81 0.79 0.81 0.88 0.85 0.85 0.85 0.87 0.80 0.68 0.56 0.47 0.46 0.47 0.52 0.65 0.80 0.72 0.66 0.66 0.62 0.60 0.88 1.05 1.19 1.25 1.27 1.21 1.18
1.45 1.05 0.82 0.74 0.71 0.68 0.57 0.52 0.59 0.61 0.65 0.69 0.81 0.89 1.01 1.05 1.02 1.14 1.06 1.10 1.03 1.03 0.96 0.87 0.75 0.65 0.59 0.58 0.72 0.92 0.79 0.74 0.90 0.91 0.77 0.82 0.99 1.18 1.30 1.29 1.28 1.25 1.24
1.62 1.20 1.05 0.86 0.75 0.76 0.86 1.03 1.04 0.87 0.93 1.05 1.23 1.35 1.57 1.58 1.54 1.29 1.37 1.47 1.54 1.62 1.51 1.42 1.34 1.04 0.87 0.82 1.28 1.51 0.87 0.77 0.88 1.00 0.92 0.92 1.12 1.40 1.53 1.42 1.31 1.25 1.16
1.54 1.30 1.20 1.16 1.09 0.98 1.11 1.26 1.31 1.25 1.31 1.35 1.44 1.56 1.70 1.49 1.41 1.37 1.45 1.69 1.80 1.89 1.81 1.95 1.96 1.63 1.57 1.58 1.76 1.69 1.17 1.10 1.05 0.99 1.07 1.15 1.24 1.51 1.77 1.60 1.38 1.28 1.16
1.99 1.71 1.53 1.57 1.43 1.31 1.29 1.41 1.44 1.44 1.39 1.43 1.59 1.54 1.69 1.78 1.74 1.73 1.84 1.86 1.94 2.11 2.45 2.23 2.39 2.27 2.10 1.97 1.95 1.83 1.52 1.50 1.49 1.46 1.64 1.43 1.33 1.60 1.91 1.76 1.53 1.42 1.31
2.53 2.44 2.15 1.89 1.69 1.64 1.76 1.74 1.64 1.66 1.63 1.72 1.88 1.84 1.87 2.05 2.09 2.11 2.09 2.12 1.94 2.13 2.48 2.59 2.47 2.67 2.75 2.55 2.33 2.07 1.93 1.77 1.65 1.67 1.76 1.67 1.54 1.60 1.86 1.95 1.80 1.67 1.54
2.73 2.81 2.60 2.37 2.20 2.15 2.28 2.33 2.18 1.97 2.07 2.14 2.15 2.03 2.07 2.29 2.51 2.58 2.42 2.38 2.22 2.23 2.45 2.59 2.61 3.13 3.07 2.93 2.46 2.17 2.08 2.01 1.84 1.83 1.89 1.97 1.68 1.52 1.64 1.94 2.09 2.02 1.88
3.11 3.02 2.96 2.88 2.77 2.79 2.73 2.67 2.48 2.38 2.23 2.25 2.33 2.39 2.35 2.37 2.63 2.72 2.69 2.55 2.45 2.40 2.58 2.64 2.85 3.12 2.87 2.75 2.46 2.31 2.18 2.05 1.85 1.84 2.02 2.21 1.98 1.70 1.56 1.70 2.01 2.15 2.16
3.47 3.44 3.41 3.24 3.24 3.24 3.15 3.03 2.86 2.70 2.44 2.26 2.27 2.42 2.45 2.48 2.63 2.75 2.58 2.45 2.65 2.72 2.83 3.01 3.11 3.13 3.00 2.91 2.68 2.33 2.16 2.10 1.69 1.66 1.71 1.81 1.96 1.71 1.81 1.94 2.10 2.17 2.31
3.98 4.10 4.08 4.01 3.79 3.53 3.44 3.41 3.43 3.33 3.01 2.67 2.58 2.57 2.56 2.40 2.46 2.66 2.55 2.63 2.78 2.88 2.93 2.69 3.09 3.09 3.09 3.01 2.48 2.22 1.96 1.84 1.70 1.46 1.44 1.37 1.51 1.55 1.63 1.75 1.94 1.95 2.24
4.28 4.70 4.61 4.43 4.33 4.24 4.12 3.85 3.82 3.57 3.26 3.08 2.97 2.99 2.78 2.61 2.59 2.78 2.62 2.71 2.82 2.97 3.00 2.98 3.17 3.14 2.97 2.94 2.31 2.06 1.83 1.48 1.48 1.44 1.26 1.26 1.28 1.19 1.29 1.52 1.87 1.61 1.95
4.54 4.91 4.99 5.08 4.93 4.64 4.22 3.79 3.60 3.50 3.45 3.24 3.03 2.85 2.73 2.67 2.76 3.00 2.82 2.98 2.96 2.83 2.85 2.99 3.17 2.99 2.76 2.85 2.75 2.17 1.62 1.29 1.28 1.25 1.30 1.38 1.28 1.27 1.42 1.73 1.86 1.73 1.60
4.15 4.56 4.66 4.43 4.30 4.13 3.86 3.74 3.71 3.90 3.59 3.26 3.06 2.84 2.64 2.62 2.72 2.64 2.78 2.67 2.72 2.86 2.83 2.87 3.07 2.89 2.50 2.63 2.75 2.59 1.93 1.63 1.28 1.00 1.21 1.28 1.29 1.47 1.52 1.59 1.84 2.03 1.89
3.11 3.36 3.52 3.67 3.57 3.45 3.41 3.39 3.43 3.62 3.36 3.08 2.90 2.77 2.50 2.37 2.34 2.39 2.43 2.51 2.76 2.78 2.78 2.86 2.85 2.70 2.39 2.36 2.50 2.65 2.14 1.74 1.40 1.01 0.97 1.16 1.43 1.58 1.54 1.67 1.75 1.93 2.00
2.72 2.91 2.97 2.99 3.09 3.10 3.16 3.07 2.90 2.79 2.66 2.53 2.55 2.51 2.46 2.37 2.28 2.25 2.26 2.31 2.38 2.37 2.46 2.26 2.35 2.50 2.55 2.35 2.42 2.35 2.19 2.01 1.87 1.41 1.10 1.08 1.30 1.43 1.55 1.53 1.54 1.66 1.93
2.12 2.36 2.51 2.62 2.70 2.80 2.85 2.75 2.71 2.50 2.47 2.47 2.45 2.46 2.37 2.29 2.25 2.19 2.16 2.14 2.05 2.01 2.13 2.11 2.23 2.27 2.27 2.24 2.29 2.35 2.31 2.20 2.05 1.92 1.60 1.40 1.32 1.16 1.27 1.37 1.45 1.55 1.78
1.85 2.02 2.17 2.31 2.36 2.48 2.53 2.54 2.48 2.42 2.42 2.39 2.35 2.30 2.23 2.22 2.12 2.04 2.00 2.01 1.92 1.91 1.97 2.04 2.11 2.06 2.10 2.17 2.19 2.21 2.26 2.17 2.16 2.21 1.87 1.68 1.54 1.22 1.20 1.18 1.25 1.35 1.60